Regional Weather Roundup
Issued by NWS

Home | Current Version | Previous Version | Graphics & Text | Print | Product List | Glossary On
Versions: 1 2 3 4 5 6 7 8 9 10 11 12 13 14 15 16 17 18 19 20 21 22 23 24 25 26 27 28 29 30 31 32 33 34 35 36 37 38 39 40 41 42 43 44 45 46 47 48 49 50
000
ASUS43 KOAX 200902
RWRNE

WEATHER ROUNDUP FOR NEBRASKA
NATIONAL WEATHER SERVICE OMAHA NE
400 AM CDT FRI APR 20 2018

NOTES: SATELLITE DATA IS BEING USED TO AUGMENT CLOUD COVER ABOVE
       12000 FEET.
       "FAIR" INDICATES FEW OR NO CLOUDS BELOW 12,000 FEET WITH NO
       SIGNIFICANT WEATHER AND/OR OBSTRUCTIONS TO VISIBILITY.


NEZ001>004-019>022-054>056-201000-
NEBRASKA PANHANDLE

CITY           SKY/WX    TMP DP  RH WIND       PRES   REMARKS
SCOTTSBLUFF    CLOUDY    41  28  60 SE22G31   30.06F
ALLIANCE       CLOUDY    41  28  60 SE26G33   30.10F
CHADRON        CLOUDY    45  27  49 SE16G24   30.11F
GORDON         FAIR      40  28  62 SE10      30.17S WCI  34
KIMBALL        CLOUDY    38  25  58 SE26G35   30.03F WCI  27
SIDNEY         CLOUDY    39  26  59 SE26G36   30.07F WCI  28
$$

NEZ057>060-069>072-079>082-201000-
SOUTHWEST NEBRASKA

CITY           SKY/WX    TMP DP  RH WIND       PRES   REMARKS
NORTH PLATTE   CLOUDY    38  29  70 SE10      30.24F WCI  31
IMPERIAL       CLOUDY    39  27  62 E20       30.17F WCI  29
LEXINGTON      CLOUDY    39  28  65 SE7       30.28S WCI  34
MCCOOK         CLOUDY    42  28  57 SE14      30.23F
OGALLALA       CLOUDY    44  28  54 SE18      30.18F
$$

NEZ005>010-023>029-035>040-094-201000-
NORTH CENTRAL NEBRASKA

CITY           SKY/WX    TMP DP  RH WIND       PRES   REMARKS
VALENTINE      CLOUDY    37  27  67 E6        30.25F WCI  32
AINSWORTH      CLOUDY    39  29  67 SE10      30.27F WCI  32
BROKEN BOW     MOCLDY    36  27  69 SE6       30.28S WCI  31
O`NEILL        CLOUDY    39  32  76 SE10      30.33S WCI  32
ORD            MOCLDY    39  27  62 SE7       30.30F WCI  34
THEDFORD       CLOUDY    39  29  69 SE8       30.25F WCI  33
$$

NEZ041-046>049-061>064-073>077-083>087-201000-
SOUTH CENTRAL NEBRASKA

CITY           SKY/WX    TMP DP  RH WIND       PRES   REMARKS
GRAND ISLAND   PTCLDY    40  27  59 SE8       30.33F WCI  34
AURORA         CLOUDY    33  27  76 SE6       30.34S WCI  28
HASTINGS       CLOUDY    39  26  59 SE9       30.32F WCI  33
HEBRON         MOCLDY    35  28  74 CALM      30.36S
HOLDREGE       PTCLDY    38  28  67 SE12      30.28F WCI  31
KEARNEY        CLOUDY    35  27  72 SE9       30.31F WCI  28
YORK             N/A     39  28  65 CALM      30.35F
$$

NEZ011>018-030>034-042>045-201000-
NORTHEAST NEBRASKA

CITY           SKY/WX    TMP DP  RH WIND       PRES   REMARKS
NORFOLK        MOCLDY    33  29  85 SE12      30.35F WCI  24
ALBION         CLOUDY    36  30  79 SE5       30.34S WCI  32
BLAIR          CLOUDY    36  27  71 E7        30.40S WCI  30
COLUMBUS       PTCLDY    33  28  81 E8        30.37F WCI  26
FREMONT        CLOUDY    38  29  69 E6        30.40F WCI  34
TEKAMAH        MOCLDY    27  25  92 N3        30.42F
WAYNE          CLOUDY    32  31  96 CALM      30.39F
$$

NEZ050>053-065>068-078-088>093-201000-
SOUTHEAST NEBRASKA

CITY           SKY/WX    TMP DP  RH WIND       PRES   REMARKS
LINCOLN        CLOUDY    36  27  69 E3        30.39F
OMAHA EPPLEY   CLOUDY    38  26  62 SE5       30.43S WCI  34
BEATRICE       CLOUDY    40  30  67 SE5       30.38S
FALLS CITY     CLOUDY    39  26  59 CALM      30.41R
NEBRASKA CITY  CLOUDY    38  28  67 CALM      30.41S
PLATTSMOUTH    PTCLDY    38  27  65 SE7       30.42R HAZE    WCI  33
$$

NEZ044-045-051>053-067-201000-
OMAHA AREA

CITY           SKY/WX    TMP DP  RH WIND       PRES   REMARKS
OMAHA EPPLEY   CLOUDY    38  26  62 SE5       30.43S WCI  34
BLAIR          CLOUDY    36  27  71 E7        30.40S WCI  30
FREMONT        CLOUDY    38  29  69 E6        30.40F WCI  34
MILLARD        CLOUDY    40  29  64 CALM      30.42S
OFFUTT AFB     CLOUDY    34  25  69 E7        30.41S WCI  28
PLATTSMOUTH    PTCLDY    38  27  65 SE7       30.42R HAZE    WCI  33
WAHOO          FAIR      35  24  65 SE7       30.39F WCI  29
$$




USA.gov is the U.S. government's official web portal to all federal, state and local government web resources and services.